[[{"header":{"parameterUnit":"m.s-1","parameterCategory":1,"la1":30.2991,"la2":30.254,"lo1":-89.0895,"lo2":-89.0444,"dy":0.0017,"dx":0.0017,"nx":28,"ny":28,"refTime":"2025-08-22T21:00:00:Z","depth":0,"parameterNumber":2,"parameterNumberName":"U-component_of_WINDS"},"data":[0,0,0,0,0,0,0,0,0,0,0,0,0,0,0,0,0,0,0,0,0,0,0,0,0,0,0,0,0,0,0,0,0,0,0,0,0,0,0,0,0,0,0,0,0,0,0,0,0,0,0,0,0,0,0,0,0,0,1.2034,1.2034,0,1.204,1.204,1.204,1.1961,1.1959,1.1956,1.1954,1.1965,1.1968,1.197,0,0,0,0,0,0,0,0,0,0,0,0,0,1.196,1.1962,1.2034,1.2034,1.2035,1.204,1.204,1.204,1.1961,1.1958,1.1956,1.1953,1.1965,1.1967,1.197,0,0,0,0,0,0,0,0,0,0,0,0,0,1.1982,1.1962,1.2034,1.1996,1.1992,1.204,1.204,1.204,1.1962,1.1958,1.1955,1.1952,1.1964,1.1967,1.1971,1.2058,0,0,1.1981,1.1983,0,0,0,0,0,0,0,0,1.1981,1.1985,1.2001,1.1998,1.1995,1.1996,1.2018,1.2046,1.1963,1.1973,1.1954,1.195,1.1979,1.1981,1.1989,1.2058,1.2059,1.1982,1.1984,1.1985,1.1986,0,0,0,0,0,0,0,1.1979,1.1984,1.2037,1.2002,1.1998,1.198,1.1979,1.2023,1.1995,1.1972,1.1966,1.1968,1.1976,1.1986,1.1989,1.2059,1.1982,1.1985,1.1987,1.1988,1.2201,1.2204,0,0,0,0,0,0,1.1982,1.1983,1.2037,1.2037,1.1979,1.1984,1.1983,1.1999,1.1994,1.199,1.1971,1.1964,1.1982,1.1985,1.1989,1.2091,1.1985,1.1988,1.199,1.2197,1.2202,1.2205,0,0,0,0,0,0,1.1981,1.1988,1.2036,1.2009,1.2013,1.1988,1.2007,1.2001,1.201,1.1993,1.1988,1.1986,1.1979,1.1984,1.2041,1.2091,1.199,1.1993,1.2193,1.2199,1.2204,1.2297,0,0,0,0,0,0,1.1979,1.1988,1.2019,1.201,1.2015,1.2087,1.201,1.2003,1.2016,1.2008,1.2005,1.2002,1.1977,1.2036,1.2045,1.2094,1.1996,1.2189,1.2196,1.2202,1.2289,1.2305,1.2318,0,0,0,0,0,1.1977,1.2046,1.2021,1.2028,1.2054,1.209,1.2093,1.2062,1.202,1.2053,1.2041,1.2002,1.2084,1.2043,1.2051,1.2102,1.2185,1.2194,1.2201,1.2283,1.2302,1.2318,0,0,0,0,0,0,1.2064,1.2044,1.2017,1.2085,1.2089,1.2077,1.2116,1.2083,1.2101,1.2093,1.2054,1.2055,1.2118,1.2116,1.2071,1.2187,1.2127,1.2138,1.2186,1.2204,1.2218,1.2218,1.1999,0,0,0,0,0,1.2091,1.2121,1.2102,1.2164,1.2168,1.2142,1.2157,1.2132,1.2136,1.2138,1.2131,1.2138,1.2165,1.2184,1.2208,1.2288,1.2287,1.2327,1.2342,1.2354,1.2363,1.2407,1.2425,1.2232,1.2232,1.2231,0,0,1.2148,1.214,1.2162,1.2182,1.2182,1.2216,1.2144,1.2182,1.2207,1.2145,1.2198,1.2193,1.2198,1.2267,1.2297,1.2267,1.2416,1.2364,1.2373,1.2377,1.2417,1.2435,1.2452,1.2237,1.2236,1.2235,0,0,1.2268,1.2265,1.2316,1.2318,1.232,1.2302,1.2315,1.2307,1.2301,1.2353,1.2307,1.2337,1.2384,1.2391,1.24,1.2523,1.2488,1.2532,1.2607,1.265,1.2665,1.2679,1.2724,1.2741,1.2541,1.2541,1.2542,0,1.2339,1.2385,1.2348,1.2388,1.2399,1.2342,1.2396,1.24,1.2411,1.242,1.2386,1.2444,1.2444,1.2514,1.2544,1.2553,1.2568,1.2532,1.2666,1.2679,1.2691,1.2734,1.2751,1.2547,1.2546,1.2546,1.2545,0,1.2472,1.2506,1.2547,1.2557,1.2572,1.262,1.2591,1.2612,1.2586,1.2572,1.2627,1.2625,1.2648,1.2662,1.2638,1.273,1.2711,1.2672,1.2612,1.2715,1.2755,1.2771,1.2555,1.2553,1.2551,1.255,0,0,1.2649,1.2637,1.2653,1.2657,1.2655,1.268,1.2726,1.2746,1.2766,1.2775,1.2813,1.2854,1.2818,1.2829,1.2804,1.2842,1.2941,1.2798,1.2798,1.2826,1.3044,1.3075,1.3095,1.2917,1.292,1.2922,1.3044,0,1.2767,1.2841,1.2809,1.2888,1.2919,1.2866,1.2905,1.2909,1.2898,1.2924,1.2912,1.2943,1.2891,1.2898,1.2932,1.2922,1.2985,1.2912,1.2955,1.2957,1.2957,1.3115,1.3148,1.3263,1.306,1.3062,1.3064,0,1.2914,1.2928,1.301,1.3002,1.3014,1.305,1.3067,1.3092,1.3096,1.3085,1.3098,1.3065,1.3111,1.305,1.3113,1.3065,1.308,1.3078,1.3081,1.3086,1.3018,1.3126,1.3299,1.3317,1.3088,1.3086,1.3084,0,1.3037,1.3076,1.313,1.3135,1.3127,1.3154,1.3153,1.3153,1.3168,1.3183,1.3193,1.3214,1.3226,1.3244,1.3219,1.3177,1.3288,1.3224,1.3282,1.3283,1.3309,1.3308,1.3489,1.3316,1.3316,1.3316,1.3315,0,1.3173,1.3226,1.3185,1.3218,1.3276,1.3239,1.3298,1.3291,1.3292,1.3324,1.3279,1.3311,1.3275,1.3305,1.3285,1.3342,1.3348,1.3342,1.3336,1.3347,1.3348,1.3358,1.335,1.332,1.3319,1.3318,1.3317,0,1.332,1.3295,1.335,1.3338,1.3336,1.338,1.337,1.3402,1.3387,1.3429,1.3437,1.3414,1.3446,1.3423,1.3455,1.3442,1.3517,1.3499,1.3515,1.3511,1.3571,1.3567,1.3767,1.3792,1.3601,1.3603,1.3605,0,1.341,1.3449,1.344,1.3458,1.3459,1.3488,1.3503,1.3468,1.3486,1.3493,1.3525,1.3552,1.3573,1.3627,1.3615,1.3639,1.3623,1.3692,1.3627,1.3637,1.3627,1.3625,1.363,1.3705,1.3708,1.3709,1.3711,0,1.3572,1.3557,1.3579,1.3597,1.3615,1.3628,1.3638,1.3655,1.362,1.3643,1.3674,1.369,1.3722,1.3751,1.3771,1.3771,1.3737,1.3731,1.3746,1.3758,1.3767,1.3765,1.3553,1.3727,1.3726,1.3724,1.3723,1.3723,1.3694,1.3726,1.3726,1.3752,1.3755,1.3765,1.3794,1.3782,1.3807,1.383,1.3808,1.3847,1.3851,1.3874,1.3878,1.3909,1.3881,1.3903,1.3909,1.3915,1.3924,1.376,1.3913,1.3912,1.3912,1.3911,1.3911,0,1.3855,1.3851,1.3876,1.389,1.3911,1.3874,1.3883,1.3904,1.3937,1.3943,1.3964,1.4001,1.4029,1.4018,1.4044,1.407,1.4055,1.4078,1.4077,1.4078,1.3947,1.3932,1.409,1.409,1.409,1.409,1.409,1.409,1.3941,1.3995,1.398,1.4036,1.4032,1.4068,1.4076,1.4086,1.4091,1.4133,1.4156,1.4148,1.4148,1.4173,1.4197,1.4194,1.4206,1.4236,1.4227,1.4105,1.4087,1.407,1.4056,1.4238,1.4238,1.4355,1.4357,1.4357]},{"header":{"parameterUnit":"m.s-1","parameterCategory":1,"la1":30.2991,"la2":30.254,"lo1":-89.0895,"lo2":-89.0444,"dy":0.0017,"dx":0.0017,"nx":28,"ny":28,"refTime":"2025-08-22T21:00:00:Z","depth":0,"parameterNumber":3,"parameterNumberName":"V-component_of_WINDS"},"data":[0,0,0,0,0,0,0,0,0,0,0,0,0,0,0,0,0,0,0,0,0,0,0,0,0,0,0,0,0,0,0,0,0,0,0,0,0,0,0,0,0,0,0,0,0,0,0,0,0,0,0,0,0,0,0,0,0,0,-2.2828,-2.2828,0,-2.2851,-2.2851,-2.2851,-2.2846,-2.2845,-2.2845,-2.2845,-2.2866,-2.2867,-2.2868,0,0,0,0,0,0,0,0,0,0,0,0,0,-2.2779,-2.278,-2.2828,-2.2828,-2.2828,-2.2851,-2.2851,-2.2851,-2.2846,-2.2845,-2.2845,-2.2844,-2.2866,-2.2867,-2.2868,0,0,0,0,0,0,0,0,0,0,0,0,0,-2.28,-2.278,-2.2828,-2.2828,-2.2829,-2.285,-2.2851,-2.2851,-2.2846,-2.2845,-2.2845,-2.2844,-2.2865,-2.2867,-2.2868,-2.289,0,0,-2.2873,-2.2873,0,0,0,0,0,0,0,0,-2.2799,-2.2802,-2.2828,-2.2828,-2.2829,-2.2845,-2.2841,-2.2864,-2.2846,-2.2839,-2.2844,-2.2844,-2.2859,-2.2861,-2.2867,-2.2891,-2.2892,-2.2873,-2.2874,-2.2874,-2.2875,0,0,0,0,0,0,0,-2.2798,-2.2801,-2.2837,-2.2828,-2.2829,-2.2827,-2.283,-2.2846,-2.2853,-2.284,-2.284,-2.2842,-2.2859,-2.2865,-2.2867,-2.2892,-2.2873,-2.2874,-2.2875,-2.2875,-2.2938,-2.2938,0,0,0,0,0,0,-2.2796,-2.28,-2.2836,-2.2837,-2.2812,-2.2829,-2.2831,-2.284,-2.2852,-2.2854,-2.2843,-2.2842,-2.2863,-2.2866,-2.2868,-2.2896,-2.2874,-2.2876,-2.2876,-2.2937,-2.2938,-2.2939,0,0,0,0,0,0,-2.2795,-2.2799,-2.2835,-2.2819,-2.2823,-2.283,-2.284,-2.2841,-2.2847,-2.2855,-2.2856,-2.2848,-2.2863,-2.2866,-2.2885,-2.2897,-2.2876,-2.2878,-2.2936,-2.2937,-2.2938,-2.2951,0,0,0,0,0,0,-2.2794,-2.2799,-2.2807,-2.2819,-2.2824,-2.2852,-2.2841,-2.2842,-2.285,-2.2849,-2.286,-2.2861,-2.2863,-2.2883,-2.2887,-2.2898,-2.2879,-2.2935,-2.2937,-2.2938,-2.295,-2.2953,-2.2955,0,0,0,0,0,-2.2792,-2.2809,-2.2808,-2.2812,-2.2835,-2.2853,-2.2856,-2.2858,-2.2851,-2.2859,-2.2865,-2.2861,-2.2895,-2.2885,-2.2889,-2.2901,-2.2934,-2.2936,-2.2938,-2.2949,-2.2952,-2.2955,0,0,0,0,0,0,-2.2798,-2.2811,-2.2809,-2.2831,-2.2841,-2.2852,-2.2863,-2.2861,-2.2872,-2.2871,-2.2873,-2.2875,-2.2895,-2.29,-2.2889,-2.2924,-2.2914,-2.2916,-2.2921,-2.2924,-2.2927,-2.2925,-2.288,0,0,0,0,0,-2.2802,-2.2816,-2.2826,-2.2844,-2.2849,-2.2855,-2.2863,-2.2864,-2.2874,-2.2878,-2.2885,-2.2894,-2.2907,-2.2916,-2.2928,-2.2951,-2.2954,-2.2961,-2.2964,-2.2966,-2.2968,-2.2982,-2.2986,-2.2945,-2.2944,-2.2944,0,0,-2.281,-2.2819,-2.2827,-2.2846,-2.2853,-2.2868,-2.2859,-2.2874,-2.2885,-2.288,-2.2899,-2.2905,-2.2915,-2.2937,-2.2947,-2.2942,-2.2981,-2.2968,-2.297,-2.2971,-2.2985,-2.2989,-2.2992,-2.2946,-2.2945,-2.2945,0,0,-2.2832,-2.284,-2.2857,-2.2865,-2.2878,-2.2882,-2.2886,-2.2898,-2.2901,-2.2921,-2.2918,-2.2931,-2.2953,-2.2961,-2.2968,-2.2996,-2.2993,-2.3,-2.3014,-2.3028,-2.3031,-2.3034,-2.3045,-2.3049,-2.3002,-2.3002,-2.3002,0,-2.2841,-2.2863,-2.2865,-2.2882,-2.2891,-2.2888,-2.2906,-2.2913,-2.2929,-2.2935,-2.2929,-2.2958,-2.2965,-2.299,-2.2997,-2.3002,-2.3007,-2.2999,-2.3031,-2.3034,-2.3036,-2.3047,-2.3051,-2.3003,-2.3003,-2.3003,-2.3003,0,-2.2873,-2.2889,-2.2901,-2.2918,-2.2928,-2.2944,-2.295,-2.2959,-2.296,-2.2965,-2.2985,-2.2994,-2.3009,-2.3014,-2.3014,-2.3039,-2.3036,-2.303,-2.302,-2.3041,-2.3051,-2.3055,-2.3004,-2.3004,-2.3004,-2.3003,0,0,-2.2899,-2.2919,-2.2923,-2.2932,-2.2946,-2.2958,-2.2975,-2.2991,-2.3,-2.301,-2.3025,-2.3045,-2.3041,-2.3049,-2.3049,-2.3061,-2.3085,-2.3055,-2.3055,-2.3061,-2.3115,-2.312,-2.3125,-2.3083,-2.3084,-2.3084,-2.3114,0,-2.2924,-2.2955,-2.2959,-2.2987,-2.3002,-2.3,-2.3015,-2.3026,-2.3031,-2.3044,-2.305,-2.3064,-2.3057,-2.3062,-2.3073,-2.308,-2.3096,-2.3077,-2.3097,-2.3098,-2.3096,-2.313,-2.3135,-2.3163,-2.3118,-2.3119,-2.3119,0,-2.2957,-2.2971,-2.3001,-2.3015,-2.3021,-2.3035,-2.3051,-2.3063,-2.3075,-2.3078,-2.3088,-2.3088,-2.3106,-2.3095,-2.312,-2.3107,-2.3115,-2.312,-2.3121,-2.3124,-2.3111,-2.3135,-2.3172,-2.3176,-2.3125,-2.3125,-2.3125,0,-2.2976,-2.3001,-2.3023,-2.303,-2.3046,-2.3056,-2.3063,-2.3075,-2.3085,-2.3098,-2.3105,-2.3119,-2.3128,-2.3139,-2.3143,-2.3134,-2.3169,-2.3157,-2.3172,-2.3173,-2.318,-2.318,-2.3221,-2.3184,-2.3184,-2.3184,-2.3184,0,-2.3004,-2.3022,-2.3032,-2.3045,-2.3066,-2.307,-2.3091,-2.3097,-2.3108,-2.3123,-2.3122,-2.3135,-2.3139,-2.3154,-2.3157,-2.3178,-2.3181,-2.3185,-2.3186,-2.3186,-2.3186,-2.3192,-2.3191,-2.3185,-2.3184,-2.3184,-2.3184,0,-2.3028,-2.3035,-2.3059,-2.3073,-2.3077,-2.3092,-2.3104,-2.3117,-2.3123,-2.3142,-2.3146,-2.3155,-2.3172,-2.3177,-2.3197,-2.3199,-2.3225,-2.3223,-2.3221,-2.3222,-2.3237,-2.3236,-2.3284,-2.3291,-2.3249,-2.3249,-2.3249,0,-2.3046,-2.306,-2.3077,-2.3088,-2.3096,-2.3112,-2.3123,-2.3127,-2.3138,-2.3154,-2.3166,-2.3183,-2.3197,-2.3225,-2.3233,-2.3249,-2.3248,-2.3264,-2.325,-2.3251,-2.325,-2.325,-2.3252,-2.3267,-2.3267,-2.3267,-2.3268,0,-2.3078,-2.3081,-2.3097,-2.3114,-2.3127,-2.3141,-2.3154,-2.3162,-2.3169,-2.3181,-2.32,-2.3211,-2.3233,-2.325,-2.3267,-2.3274,-2.3273,-2.3272,-2.3277,-2.3277,-2.3276,-2.3279,-2.323,-2.3271,-2.3271,-2.327,-2.327,-2.327,-2.31,-2.3114,-2.3129,-2.3147,-2.3157,-2.317,-2.3184,-2.3192,-2.3208,-2.3227,-2.3228,-2.3248,-2.3261,-2.3283,-2.3292,-2.3308,-2.3303,-2.3309,-2.3311,-2.3313,-2.3315,-2.3273,-2.331,-2.331,-2.331,-2.331,-2.331,0,-2.3134,-2.3143,-2.316,-2.3179,-2.3194,-2.3192,-2.3207,-2.3219,-2.3237,-2.325,-2.3264,-2.3286,-2.3304,-2.3313,-2.3331,-2.3342,-2.3342,-2.3346,-2.3346,-2.3348,-2.3317,-2.3312,-2.3346,-2.3346,-2.3346,-2.3346,-2.3346,-2.3346,-2.3153,-2.3177,-2.3182,-2.3211,-2.322,-2.3241,-2.325,-2.3262,-2.3273,-2.3298,-2.3313,-2.3319,-2.3331,-2.335,-2.3366,-2.3368,-2.3375,-2.3381,-2.3383,-2.3354,-2.335,-2.3347,-2.3342,-2.3382,-2.3382,-2.3413,-2.3413,-2.3413]}]]